Flag for U.S.A. Weather past 2 weeks in Ann Arbor, Michigan, U.S.A.

Now
78 °F

Passing clouds.


Feels Like: 79 °F
Forecast: 56 / 79 °F
Wind: 8 mph from West

Location: Ann Arbor Municipal Airport

Current Time: Aug 4, 2015 at 12:56:27 PM

Latest Report: Aug 4, 2015 at 11:53 AM


Visibility: 10 mi

Pressure: 29.92 "Hg

Humidity: 46%

Dew point: 56 °F

Location of Ann ArborLocation

Historic Weather in Ann Arbor — Graph

°F

Ann Arbor temperature yesterday

Maximum temperature yesterday: 81 °F (at 4:53 PM)
Minimum temperature yesterday: 60 °F (at 11:53 PM)
Average temperature yesterday: 69 °F

Past Weeks' High & Low Weather Summary

 TemperatureHumidityPressure
High90 °F (Aug 2, 2:53 PM)100% (Jul 23, 2:59 AM)30.06 "Hg (Jul 23, 2:59 AM)
Low52 °F (Jul 22, 3:53 AM)33% (Jul 31, 5:53 PM)29.65 "Hg (Aug 2, 9:53 PM)
Average72 °F69%29.91 "Hg
* Reported Jul 20 10:53 AM — Aug 4 10:53 AM, Ann Arbor, Weather by CustomWeather, © 2015

Note: Actual official high and low records may vary slightly from our data, if they occured in-between our weather recording intervals... More about our weather records

Advertising

Ann Arbor weather history for previous 24 hours

 ConditionsComfort  
Time TempWeatherWind HumidityBarometerVisibility
10:53 AM
Tue, Aug 4
76 °FSunny.N/A54%29.93 "Hg10 mi
9:53 AM71 °FSunny.6 mph63%29.92 "Hg10 mi
8:53 AM67 °FSunny.N/A73%29.91 "Hg10 mi
7:53 AM58 °FSunny.No wind93%29.91 "Hg10 mi
6:53 AM53 °FClear.No wind96%29.90 "Hg10 mi
5:53 AM53 °FClear.No wind93%29.89 "Hg10 mi
4:53 AM54 °FClear.No wind93%29.88 "Hg10 mi
3:53 AM53 °FPassing clouds.No wind96%29.88 "Hg10 mi
2:53 AM56 °FClear.3 mph87%29.87 "Hg10 mi
1:53 AM54 °FPassing clouds.3 mph90%29.88 "Hg10 mi
12:53 AM54 °FClear.5 mph93%29.87 "Hg10 mi
11:53 PM
Mon, Aug 3
60 °FClear.3 mph78%29.86 "Hg10 mi
10:53 PM61 °FClear.3 mph75%29.86 "Hg10 mi
9:53 PM64 °FClear.7 mph63%29.84 "Hg10 mi
8:53 PM70 °FSunny.13 mph49%29.83 "Hg10 mi
7:53 PM74 °FPassing clouds.12 mph45%29.81 "Hg10 mi
6:53 PM77 °FPassing clouds.16 mph44%29.79 "Hg10 mi
5:53 PM78 °FBroken clouds.8 mph50%29.77 "Hg10 mi
4:53 PM81 °FPassing clouds.18 mph39%29.76 "Hg10 mi
3:53 PM80 °FPassing clouds.20 mph47%29.77 "Hg10 mi
2:53 PM80 °FPassing clouds.14 mph47%29.77 "Hg10 mi
1:53 PM77 °FBroken clouds.10 mph60%29.78 "Hg10 mi
12:53 PM76 °FScattered clouds.14 mph62%29.79 "Hg10 mi
Weather by CustomWeather, © 2015

See weather overviewHow to use our weather pages